05:17
Airports
History
Links
Donate
Help keep this website running!
PayPal
Bitcoin
Information on this page is community maintained and may be outdated or inaccurate and is intended for reference only or PC simulator navigating.
Always use approved charts for navigating.
EDNG
Giengen Brenz
Giengen Brenz (EDNG)
Giengen, Baden-Wurttemberg, Germany (89537)
(U)
Lat/Lng:48° 38' 6.61" N / 10° 12' 55.8" E
48.63517 / 10.215499
Elevation:1695'ft 517mMSL
ID / ICAO:EDNG
Runways:1
Longest:(17-35) 547.2m 1,795ft Asphalt
Distance To
Airport ID:
Nearby VORs <50NM
Nearby NDBs
Nearby WeatherUpdated 06-28-17 04:20 GMT
Nearby weather at ETHL, LAUPHEIM located 31.7 nautical miles from EDNG
Altimeter: 29.62
Visibility: 5.6 statute miles
Wind: 6 knots (270°)
Temp: 16°c 61°f
Humidity: 93.8%

METAR: ETHL 280420Z 27006KT 9000 -RA FEW015 FEW040CB BKN080 16/15 Q1003 RETSRA BLU BLU

(Powered by phpweather)
Runway 17 / 35
Dimensions:547.2 x 14.9m 1795' x 49'ft
Surface:Asphalt
Runway 17 [A]Runway 35 [B]
Heading:170°TH 350°TH
Lat:
Lng:
48° 38' 15.38"N
10° 12' 53.46"E
48° 37' 57.84"N
10° 12' 58.14"E
User Notes and Comments
Google Map
Nearby Airports
(U) AALEN HEIDENHEIM ELCHINGEN 10.1 NM
EDPA NNE 12°
(C) Heubach 17.5 NM
EDTH NW 311°
(U) Noerdlingen 21.1 NM
EDNO NE 38°
4 Erbach 24.5 NM
EDNE SW 214°
(U) Laichingen 28.0 NM
EDPJ WSW 250°
(C) LAUPHEIM 31.7 NM
ETHL (WX) SSW 206°
(C) Augsburg 35.9 NM
EDMA (WX) ESE 113°
VFR Chart
Flight Planning at SkyVector.com